Time,TemperatureF,DewpointF,PressureIn,WindDirection,WindDirectionDegrees,WindSpeedMPH,WindSpeedGustMPH,Humidity,HourlyPrecipIn,Conditions,Clouds,dailyrainin,SoftwareType,DateUTC
2017-09-22 00:00:00,64.9,62.2,30.05,NW,315,0.0,0.0,91,0.00,,---,0.00,VWS V15.00,2017-09-22 04:00:00,
2017-09-22 00:05:00,64.9,62.5,30.05,NW,315,0.0,0.0,92,0.00,,---,0.00,VWS V15.00,2017-09-22 04:05:00,
2017-09-22 00:10:00,64.9,62.5,30.05,NW,315,0.0,0.0,92,0.00,,---,0.00,VWS V15.00,2017-09-22 04:10:00,
2017-09-22 00:15:00,64.7,62.3,30.05,NW,315,0.0,0.0,92,0.00,,---,0.00,VWS V15.00,2017-09-22 04:15:00,
2017-09-22 00:20:00,64.6,62.2,30.05,NW,315,2.0,2.0,92,0.00,,---,0.00,VWS V15.00,2017-09-22 04:20:00,
2017-09-22 00:25:00,64.6,62.2,30.05,NW,315,0.0,1.0,92,0.00,,---,0.00,VWS V15.00,2017-09-22 04:25:00,
2017-09-22 00:30:00,64.4,62.0,30.05,NW,315,0.0,2.0,92,0.00,,---,0.00,VWS V15.00,2017-09-22 04:30:00,
2017-09-22 00:35:00,64.3,61.9,30.05,NW,315,1.0,1.0,92,0.00,,---,0.00,VWS V15.00,2017-09-22 04:35:00,
2017-09-22 00:40:00,64.3,62.2,30.05,NW,315,0.0,1.0,93,0.00,,---,0.00,VWS V15.00,2017-09-22 04:40:00,
2017-09-22 00:45:00,64.3,62.2,30.05,NW,315,0.0,0.0,93,0.00,,---,0.00,VWS V15.00,2017-09-22 04:45:00,
2017-09-22 00:50:00,64.3,62.5,30.05,NW,315,0.0,0.0,94,0.00,,---,0.00,VWS V15.00,2017-09-22 04:50:00,
2017-09-22 00:55:00,64.4,62.6,30.05,NW,315,0.0,0.0,94,0.00,,---,0.00,VWS V15.00,2017-09-22 04:55:00,
2017-09-22 01:00:00,64.4,62.6,30.05,NW,315,0.0,0.0,94,0.00,,---,0.00,VWS V15.00,2017-09-22 05:00:00,
2017-09-22 01:05:00,64.3,62.2,30.05,NW,315,0.0,0.0,93,0.00,,---,0.00,VWS V15.00,2017-09-22 05:05:00,
2017-09-22 01:10:00,64.3,62.2,30.05,NW,315,0.0,0.0,93,0.00,,---,0.00,VWS V15.00,2017-09-22 05:10:00,
2017-09-22 01:15:00,64.3,62.2,30.05,NW,315,0.0,0.0,93,0.00,,---,0.00,VWS V15.00,2017-09-22 05:15:00,
2017-09-22 01:20:00,64.3,62.2,30.05,NW,315,0.0,0.0,93,0.00,,---,0.00,VWS V15.00,2017-09-22 05:20:00,
2017-09-22 01:25:00,64.3,62.5,30.05,NW,315,0.0,0.0,94,0.00,,---,0.00,VWS V15.00,2017-09-22 05:25:00,
2017-09-22 01:30:00,64.3,62.5,30.05,NW,315,0.0,0.0,94,0.00,,---,0.00,VWS V15.00,2017-09-22 05:30:00,
2017-09-22 01:35:00,64.3,62.2,30.05,NW,315,0.0,0.0,93,0.00,,---,0.00,VWS V15.00,2017-09-22 05:35:00,
2017-09-22 01:40:00,64.1,62.3,30.05,NW,315,0.0,0.0,94,0.00,,---,0.00,VWS V15.00,2017-09-22 05:40:00,
2017-09-22 01:45:00,64.1,62.3,30.05,NW,315,0.0,0.0,94,0.00,,---,0.00,VWS V15.00,2017-09-22 05:45:00,
2017-09-22 01:50:00,64.1,62.3,30.05,NW,315,0.0,0.0,94,0.00,,---,0.00,VWS V15.00,2017-09-22 05:50:00,
2017-09-22 01:55:00,64.1,62.3,30.05,NW,315,0.0,1.0,94,0.00,,---,0.00,VWS V15.00,2017-09-22 05:55:00,
2017-09-22 02:00:00,63.9,62.1,30.05,NW,315,1.0,1.0,94,0.00,,---,0.00,VWS V15.00,2017-09-22 06:00:00,
2017-09-22 02:05:00,63.8,62.0,30.05,NW,315,0.0,0.0,94,0.00,,---,0.00,VWS V15.00,2017-09-22 06:05:00,
2017-09-22 02:10:00,63.8,62.0,30.05,NW,315,2.0,2.0,94,0.00,,---,0.00,VWS V15.00,2017-09-22 06:10:00,
2017-09-22 02:15:00,63.6,61.8,30.05,NW,315,0.0,1.0,94,0.00,,---,0.00,VWS V15.00,2017-09-22 06:15:00,
2017-09-22 02:20:00,63.6,61.8,30.05,NW,315,0.0,0.0,94,0.00,,---,0.00,VWS V15.00,2017-09-22 06:20:00,
2017-09-22 02:25:00,63.4,62.0,30.05,NW,315,0.0,0.0,95,0.00,,---,0.00,VWS V15.00,2017-09-22 06:25:00,
2017-09-22 02:30:00,63.4,62.0,30.04,NW,315,0.0,0.0,95,0.00,,---,0.00,VWS V15.00,2017-09-22 06:30:00,
2017-09-22 02:35:00,63.4,62.0,30.04,NW,315,0.0,0.0,95,0.00,,---,0.00,VWS V15.00,2017-09-22 06:35:00,
2017-09-22 02:40:00,63.3,61.8,30.04,NW,315,0.0,0.0,95,0.00,,---,0.00,VWS V15.00,2017-09-22 06:40:00,
2017-09-22 02:45:00,63.3,61.8,30.03,NW,315,0.0,0.0,95,0.00,,---,0.00,VWS V15.00,2017-09-22 06:45:00,
2017-09-22 02:50:00,63.1,61.7,30.03,NW,315,0.0,1.0,95,0.00,,---,0.00,VWS V15.00,2017-09-22 06:50:00,
2017-09-22 02:55:00,63.1,61.7,30.03,NW,315,1.0,2.0,95,0.00,,---,0.00,VWS V15.00,2017-09-22 06:55:00,
2017-09-22 03:00:00,63.0,61.5,30.03,NW,315,0.0,0.0,95,0.00,,---,0.00,VWS V15.00,2017-09-22 07:00:00,
2017-09-22 03:05:00,63.0,61.5,30.03,NW,315,0.0,0.0,95,0.00,,---,0.00,VWS V15.00,2017-09-22 07:05:00,
2017-09-22 03:10:00,62.8,61.0,30.03,NW,315,0.0,0.0,94,0.00,,---,0.00,VWS V15.00,2017-09-22 07:10:00,
2017-09-22 03:15:00,62.8,61.0,30.02,NW,315,0.0,0.0,94,0.00,,---,0.00,VWS V15.00,2017-09-22 07:15:00,
2017-09-22 03:20:00,62.6,60.8,30.02,NW,315,0.0,0.0,94,0.00,,---,0.00,VWS V15.00,2017-09-22 07:20:00,
2017-09-22 03:25:00,62.6,60.8,30.02,NW,315,0.0,0.0,94,0.00,,---,0.00,VWS V15.00,2017-09-22 07:25:00,
2017-09-22 03:26:00,62.6,60.8,30.02,NW,315,0.0,0.0,94,0.00,,---,0.00,VWS V15.00,2017-09-22 07:26:00,
2017-09-22 03:31:00,62.6,61.2,30.02,NW,315,0.0,0.0,95,0.00,,---,0.00,VWS V15.00,2017-09-22 07:31:00,
2017-09-22 03:36:00,62.6,61.2,30.02,NW,315,0.0,0.0,95,0.00,,---,0.00,VWS V15.00,2017-09-22 07:36:00,
2017-09-22 03:41:00,62.5,60.8,30.02,NW,315,0.0,0.0,94,0.00,,---,0.00,VWS V15.00,2017-09-22 07:41:00,
2017-09-22 03:46:00,62.5,60.8,30.02,NW,315,0.0,0.0,94,0.00,,---,0.00,VWS V15.00,2017-09-22 07:46:00,
2017-09-22 03:51:00,62.5,60.8,30.02,NW,315,0.0,0.0,94,0.00,,---,0.00,VWS V15.00,2017-09-22 07:51:00,
2017-09-22 03:56:00,62.5,60.8,30.02,NW,315,0.0,0.0,94,0.00,,---,0.00,VWS V15.00,2017-09-22 07:56:00,
2017-09-22 04:01:00,62.5,60.8,30.01,NW,315,0.0,0.0,94,0.00,,---,0.00,VWS V15.00,2017-09-22 08:01:00,
2017-09-22 04:06:00,62.5,60.5,30.01,NW,315,0.0,0.0,93,0.00,,---,0.00,VWS V15.00,2017-09-22 08:06:00,
2017-09-22 04:11:00,62.5,60.5,30.01,NW,315,0.0,0.0,93,0.00,,---,0.00,VWS V15.00,2017-09-22 08:11:00,
2017-09-22 04:16:00,62.5,60.8,30.02,NW,315,0.0,0.0,94,0.00,,---,0.00,VWS V15.00,2017-09-22 08:16:00,
2017-09-22 04:21:00,62.5,60.5,30.02,NW,315,0.0,0.0,93,0.00,,---,0.00,VWS V15.00,2017-09-22 08:21:00,
2017-09-22 04:26:00,62.5,60.8,30.02,NW,315,0.0,0.0,94,0.00,,---,0.00,VWS V15.00,2017-09-22 08:26:00,
2017-09-22 04:31:00,62.6,60.5,30.02,NW,315,0.0,0.0,93,0.00,,---,0.00,VWS V15.00,2017-09-22 08:31:00,
2017-09-22 04:36:00,62.6,60.5,30.02,NW,315,0.0,0.0,93,0.00,,---,0.00,VWS V15.00,2017-09-22 08:36:00,
2017-09-22 04:41:00,62.6,60.5,30.02,NW,315,0.0,0.0,93,0.00,,---,0.00,VWS V15.00,2017-09-22 08:41:00,
2017-09-22 04:46:00,62.6,60.5,30.02,NW,315,0.0,0.0,93,0.00,,---,0.00,VWS V15.00,2017-09-22 08:46:00,
2017-09-22 04:51:00,62.6,60.8,30.02,NW,315,0.0,0.0,94,0.00,,---,0.00,VWS V15.00,2017-09-22 08:51:00,
2017-09-22 04:56:00,62.8,61.0,30.02,NW,315,0.0,0.0,94,0.00,,---,0.00,VWS V15.00,2017-09-22 08:56:00,
2017-09-22 05:01:00,62.8,61.0,30.02,NW,315,0.0,0.0,94,0.00,,---,0.00,VWS V15.00,2017-09-22 09:01:00,
2017-09-22 05:06:00,62.8,61.0,30.02,NW,315,0.0,0.0,94,0.00,,---,0.00,VWS V15.00,2017-09-22 09:06:00,
2017-09-22 05:11:00,62.8,61.0,30.02,NW,315,0.0,0.0,94,0.00,,---,0.00,VWS V15.00,2017-09-22 09:11:00,
2017-09-22 05:16:00,63.0,61.2,30.02,NW,315,0.0,0.0,94,0.00,,---,0.00,VWS V15.00,2017-09-22 09:16:00,
2017-09-22 05:21:00,63.0,61.2,30.02,NW,315,0.0,0.0,94,0.00,,---,0.00,VWS V15.00,2017-09-22 09:21:00,
2017-09-22 05:26:00,63.0,61.2,30.02,NW,315,0.0,0.0,94,0.00,,---,0.00,VWS V15.00,2017-09-22 09:26:00,
2017-09-22 05:31:00,63.1,61.3,30.03,NW,315,0.0,0.0,94,0.00,,---,0.00,VWS V15.00,2017-09-22 09:31:00,
2017-09-22 05:36:00,63.1,61.3,30.03,NW,315,0.0,0.0,94,0.00,,---,0.00,VWS V15.00,2017-09-22 09:36:00,
2017-09-22 05:41:00,63.1,61.3,30.03,NW,315,0.0,0.0,94,0.00,,---,0.00,VWS V15.00,2017-09-22 09:41:00,
2017-09-22 05:46:00,63.0,61.2,30.03,NW,315,0.0,0.0,94,0.00,,---,0.00,VWS V15.00,2017-09-22 09:46:00,
2017-09-22 05:51:00,63.1,61.7,30.03,NW,315,0.0,0.0,95,0.00,,---,0.00,VWS V15.00,2017-09-22 09:51:00,
2017-09-22 05:56:00,63.1,61.7,30.03,NW,315,0.0,0.0,95,0.00,,---,0.00,VWS V15.00,2017-09-22 09:56:00,
2017-09-22 06:01:00,63.1,61.7,30.03,NW,315,1.0,3.0,95,0.00,,---,0.00,VWS V15.00,2017-09-22 10:01:00,
2017-09-22 06:06:00,63.1,61.7,30.03,NW,315,0.0,0.0,95,0.00,,---,0.00,VWS V15.00,2017-09-22 10:06:00,
2017-09-22 06:11:00,63.1,61.7,30.03,NW,315,0.0,0.0,95,0.00,,---,0.00,VWS V15.00,2017-09-22 10:11:00,
2017-09-22 06:16:00,63.1,61.9,30.04,NW,315,0.0,0.0,96,0.00,,---,0.00,VWS V15.00,2017-09-22 10:16:00,
2017-09-22 06:21:00,63.1,61.7,30.04,NW,315,1.0,2.0,95,0.00,,---,0.00,VWS V15.00,2017-09-22 10:21:00,
2017-09-22 06:26:00,63.1,61.7,30.04,NW,315,0.0,0.0,95,0.00,,---,0.00,VWS V15.00,2017-09-22 10:26:00,
2017-09-22 06:31:00,63.1,61.9,30.04,NW,315,0.0,0.0,96,0.00,,---,0.00,VWS V15.00,2017-09-22 10:31:00,
2017-09-22 06:36:00,63.1,61.9,30.04,NW,315,0.0,0.0,96,0.00,,---,0.00,VWS V15.00,2017-09-22 10:36:00,
2017-09-22 06:41:00,63.1,61.9,30.04,NW,315,0.0,0.0,96,0.00,,---,0.00,VWS V15.00,2017-09-22 10:41:00,
2017-09-22 06:46:00,63.3,61.8,30.04,NW,315,0.0,0.0,95,0.00,,---,0.00,VWS V15.00,2017-09-22 10:46:00,
2017-09-22 06:51:00,63.3,61.8,30.04,NW,315,0.0,0.0,95,0.00,,---,0.00,VWS V15.00,2017-09-22 10:51:00,
2017-09-22 06:56:00,63.4,62.0,30.04,NW,315,0.0,0.0,95,0.00,,---,0.00,VWS V15.00,2017-09-22 10:56:00,
2017-09-22 07:01:00,63.4,62.0,30.05,NW,315,0.0,0.0,95,0.00,,---,0.00,VWS V15.00,2017-09-22 11:01:00,
2017-09-22 07:06:00,63.6,62.2,30.05,NW,315,1.0,1.0,95,0.00,,---,0.00,VWS V15.00,2017-09-22 11:06:00,
2017-09-22 07:11:00,63.6,62.2,30.05,NW,315,0.0,0.0,95,0.00,,---,0.00,VWS V15.00,2017-09-22 11:11:00,
2017-09-22 07:16:00,63.6,62.2,30.06,NW,315,0.0,0.0,95,0.00,,---,0.00,VWS V15.00,2017-09-22 11:16:00,
2017-09-22 07:18:00,63.6,62.2,30.06,NW,315,0.0,0.0,95,0.00,,---,0.00,VWS V15.00,2017-09-22 11:18:00,
2017-09-22 07:23:00,63.6,62.2,30.06,NW,315,0.0,0.0,95,0.00,,---,0.00,VWS V15.00,2017-09-22 11:23:00,
2017-09-22 07:28:00,63.6,62.2,30.06,NW,315,0.0,0.0,95,0.00,,---,0.00,VWS V15.00,2017-09-22 11:28:00,
2017-09-22 07:33:00,63.6,62.2,30.06,NW,315,1.0,2.0,95,0.00,,---,0.00,VWS V15.00,2017-09-22 11:33:00,
2017-09-22 07:38:00,63.8,62.3,30.06,NW,315,0.0,3.0,95,0.00,,---,0.00,VWS V15.00,2017-09-22 11:38:00,
2017-09-22 07:43:00,63.8,62.3,30.06,NW,315,0.0,3.0,95,0.00,,---,0.00,VWS V15.00,2017-09-22 11:43:00,
2017-09-22 07:48:00,63.9,62.7,30.06,NW,315,0.0,1.0,96,0.00,,---,0.00,VWS V15.00,2017-09-22 11:48:00,
2017-09-22 07:53:00,64.1,62.9,30.06,NW,315,0.0,2.0,96,0.00,,---,0.00,VWS V15.00,2017-09-22 11:53:00,
2017-09-22 07:58:00,64.1,62.9,30.06,NW,315,0.0,0.0,96,0.00,,---,0.00,VWS V15.00,2017-09-22 11:58:00,
2017-09-22 08:03:00,64.4,63.5,30.06,NW,315,0.0,0.0,97,0.00,,---,0.00,VWS V15.00,2017-09-22 12:03:00,
2017-09-22 08:08:00,64.6,63.7,30.06,NW,315,0.0,0.0,97,0.00,,---,0.00,VWS V15.00,2017-09-22 12:08:00,
2017-09-22 08:13:00,64.7,63.8,30.06,NW,315,0.0,0.0,97,0.00,,---,0.00,VWS V15.00,2017-09-22 12:13:00,
2017-09-22 08:18:00,64.9,64.3,30.07,NW,315,0.0,0.0,98,0.00,,---,0.00,VWS V15.00,2017-09-22 12:18:00,
2017-09-22 08:23:00,65.2,64.6,30.07,NW,315,0.0,0.0,98,0.00,,---,0.00,VWS V15.00,2017-09-22 12:23:00,
2017-09-22 08:28:00,65.4,64.8,30.07,NW,315,0.0,0.0,98,0.00,,---,0.00,VWS V15.00,2017-09-22 12:28:00,
2017-09-22 08:33:00,65.7,65.1,30.07,NW,315,0.0,0.0,98,0.00,,---,0.00,VWS V15.00,2017-09-22 12:33:00,